Weather History for Wausau, WI

Change the Weather History Date:

Wednesday, February 8, 2012

  Actual Average Record
Temperature  
Mean Temperature 17 °F 17 °F  
Max Temperature 28 °F 26 °F 50 °F (2002)
Min Temperature 6 °F 8 °F -27 °F (1971)
Degree Days  
Heating Degree Days 48 48  
Month to date heating degree days 303 389  
Since 1 July heating degree days 4493 5239  
Cooling Degree Days 0 0  
Month to date cooling degree days 0 0  
Year to date cooling degree days 0 0  
Moisture  
Dew Point 0 °F    
Average Humidity 47    
Maximum Humidity 66    
Minimum Humidity 27    
Precipitation  
Precipitation 0.00 in 0.03 in 0.80 in (1900)
Month to date precipitation T 0.24  
Year to date precipitation 1.04 1.26  
Snow  
Snow 0.00 in 0.30 in 8.00 in (1900)
Month to date snowfall T 2.9  
Since 1 July snowfall 24.6 38.6  
Snow Depth 7.00 in    
Sea Level Pressure  
Sea Level Pressure 30.34 in    
Wind  
Wind Speed 7 mph (WNW)    
Max Wind Speed 16 mph    
Max Gust Speed 20 mph    
Visibility 10 miles    
Events      
T = Trace of Precipitation, MM = Missing Value Source: NWS Daily Summary

Daily Weather History Graph

Daily Weather History Graph

Search for Another Location

Airport:

Trip Planner

Search our weather history database for the weather conditions in past years. The results will help you decide how hot, cold, wet, or windy it might be!

Date:

Astronomy

Feb. 08, 2012 Rise Set
Actual Time 7:09 AM CST 5:16 PM CST
Civil Twilight 6:39 AM CST 5:46 PM CST
Nautical Twilight 6:04 AM CST 6:21 PM CST
Astronomical Twilight 5:30 AM CST 6:55 PM CST
Moon 6:41 PM CST (2/8) 7:08 AM CST (2/8)
Length of Visible Light 11h 07m
Length of Day
10h 06m
Full, 99% of the Moon is Illuminated
Feb 8
Full
Feb 14
Last Quarter
Feb 21
New
Feb 29
First Quarter
Mar 8
Full

Hourly Weather History & Observations

Time (CST) Temp. Windchill Dew Point Humidity Pressure Visibility Wind Dir Wind Speed Gust Speed Precip Events Conditions
12:54 AM 14.0 °F 6.5 °F 3.0 °F 62% 30.46 in 10.0 mi NW 4.6 mph - N/A   Clear
1:54 AM 12.0 °F 4.1 °F 1.9 °F 64% 30.45 in 10.0 mi NW 4.6 mph - N/A   Clear
2:54 AM 10.9 °F 2.9 °F 1.9 °F 67% 30.44 in 10.0 mi NW 4.6 mph - N/A   Clear
3:54 AM 10.9 °F 0.2 °F 1.9 °F 67% 30.42 in 10.0 mi NW 6.9 mph - N/A   Clear
4:54 AM 10.0 °F -0.9 °F 1.0 °F 67% 30.41 in 10.0 mi WNW 6.9 mph - N/A   Clear
5:54 AM 10.0 °F 3.6 °F -0.9 °F 61% 30.40 in 10.0 mi NW 3.5 mph - N/A   Clear
6:54 AM 9.0 °F 0.6 °F -2.0 °F 61% 30.40 in 10.0 mi NW 4.6 mph - N/A   Clear
7:54 AM 10.0 °F 3.6 °F -2.9 °F 56% 30.41 in 10.0 mi WNW 3.5 mph - N/A   Clear
8:54 AM 12.9 °F 3.8 °F -2.9 °F 49% 30.41 in 10.0 mi WNW 5.8 mph - N/A   Clear
9:54 AM 18.0 °F 9.8 °F -2.9 °F 40% 30.40 in 10.0 mi WNW 5.8 mph - N/A   Clear
10:54 AM 21.9 °F 11.7 °F -8.0 °F 27% 30.39 in 10.0 mi WNW 9.2 mph - N/A   Clear
11:54 AM 25.0 °F 14.2 °F -5.1 °F 27% 30.37 in 10.0 mi West 11.5 mph - N/A   Clear
12:54 PM 27.0 °F 17.3 °F -2.9 °F 27% 30.34 in 10.0 mi West 10.4 mph - N/A   Clear
1:54 PM 28.0 °F 16.5 °F -2.0 °F 27% 30.32 in 10.0 mi West 15.0 mph - N/A   Clear
2:54 PM 28.0 °F 18.6 °F -0.9 °F 29% 30.30 in 10.0 mi West 10.4 mph - N/A   Clear
3:54 PM 28.0 °F 18.6 °F 1.9 °F 33% 30.29 in 10.0 mi West 10.4 mph - N/A   Clear
4:54 PM 26.1 °F 17.6 °F 1.9 °F 35% 30.29 in 10.0 mi West 8.1 mph - N/A   Clear
5:54 PM 24.1 °F 15.2 °F 1.9 °F 38% 30.28 in 10.0 mi West 8.1 mph - N/A   Clear
6:54 PM 21.9 °F 12.5 °F 3.9 °F 46% 30.27 in 10.0 mi West 8.1 mph - N/A   Clear
7:54 PM 21.9 °F 13.4 °F 3.0 °F 44% 30.27 in 10.0 mi WSW 6.9 mph - N/A   Clear
8:54 PM 21.9 °F - 3.0 °F 44% 30.26 in 10.0 mi Calm Calm - N/A   Clear
9:54 PM 21.0 °F 12.4 °F 3.9 °F 48% 30.25 in 10.0 mi WNW 6.9 mph - N/A   Clear
10:54 PM 19.9 °F 12.1 °F 3.9 °F 50% 30.24 in 10.0 mi WNW 5.8 mph - N/A   Clear
11:54 PM 18.0 °F 11.1 °F 3.0 °F 52% 30.22 in 10.0 mi West 4.6 mph - N/A   Clear